Time,TemperatureF,DewpointF,PressureIn,WindDirection,WindDirectionDegrees,WindSpeedMPH,WindSpeedGustMPH,Humidity,HourlyPrecipIn,Conditions,Clouds,dailyrainin,SoftwareType,DateUTC
2013-03-04 00:00:00,23.9,10.1,-100.00,WNW,301,0.0,0.0,55,-99.99,,,0.00,LWC V2.10 B1813,2013-03-04 05:00:00,
2013-03-04 00:05:00,23.7,9.9,-100.00,WNW,301,0.0,0.0,55,-99.99,,,0.00,LWC V2.10 B1813,2013-03-04 05:05:00,
2013-03-04 00:10:00,23.7,11.1,-100.00,WNW,301,0.0,0.0,58,-99.99,,,0.00,LWC V2.10 B1813,2013-03-04 05:10:00,
2013-03-04 00:15:00,23.7,11.1,-100.00,WNW,301,0.0,0.0,58,-99.99,,,0.00,LWC V2.10 B1813,2013-03-04 05:15:00,
2013-03-04 00:20:00,23.5,11.3,-100.00,WNW,301,0.0,0.0,59,-99.99,,,0.00,LWC V2.10 B1813,2013-03-04 05:20:00,
2013-03-04 00:25:00,23.5,11.3,-100.00,WNW,301,0.0,0.0,59,-99.99,,,0.00,LWC V2.10 B1813,2013-03-04 05:25:00,
2013-03-04 00:30:00,23.5,11.7,-100.00,WNW,301,0.0,0.0,60,-99.99,,,0.00,LWC V2.10 B1813,2013-03-04 05:30:00,
2013-03-04 00:35:00,23.7,11.5,-100.00,WNW,301,0.0,0.0,59,-99.99,,,0.00,LWC V2.10 B1813,2013-03-04 05:35:00,
2013-03-04 00:40:00,23.7,11.5,-100.00,WNW,301,0.0,0.0,59,-99.99,,,0.00,LWC V2.10 B1813,2013-03-04 05:40:00,
2013-03-04 00:42:00,23.7,11.5,-100.00,WNW,301,0.0,0.0,59,-99.99,,,0.00,LWC V2.10 B1813,2013-03-04 05:42:00,
2013-03-04 00:46:00,23.7,11.5,-100.00,WNW,301,0.0,0.0,59,-99.99,,,0.00,LWC V2.10 B1813,2013-03-04 05:46:00,
2013-03-04 00:51:00,23.7,11.5,-100.00,WNW,301,0.0,0.0,59,-99.99,,,0.00,LWC V2.10 B1813,2013-03-04 05:51:00,
2013-03-04 00:56:00,23.7,11.9,-100.00,WNW,301,0.0,0.0,60,-99.99,,,0.00,LWC V2.10 B1813,2013-03-04 05:56:00,
2013-03-04 01:01:00,23.7,11.5,-100.00,WNW,301,0.0,0.0,59,-99.99,,,0.00,LWC V2.10 B1813,2013-03-04 06:01:00,
2013-03-04 01:06:00,24.1,11.9,-100.00,WNW,301,0.0,0.0,59,-99.99,,,0.00,LWC V2.10 B1813,2013-03-04 06:06:00,
2013-03-04 01:11:00,24.1,11.5,-100.00,WNW,301,0.0,0.0,58,-99.99,,,0.00,LWC V2.10 B1813,2013-03-04 06:11:00,
2013-03-04 01:16:00,24.3,11.6,-100.00,WNW,301,0.0,0.0,58,-99.99,,,0.00,LWC V2.10 B1813,2013-03-04 06:16:00,
2013-03-04 01:21:00,24.1,11.1,-100.00,WNW,301,0.0,0.0,57,-99.99,,,0.00,LWC V2.10 B1813,2013-03-04 06:21:00,
2013-03-04 01:26:00,24.4,11.4,-100.00,WNW,301,0.0,0.0,57,-99.99,,,0.00,LWC V2.10 B1813,2013-03-04 06:26:00,
2013-03-04 01:31:00,24.4,11.4,-100.00,WNW,301,0.0,0.0,57,-99.99,,,0.00,LWC V2.10 B1813,2013-03-04 06:31:00,
2013-03-04 01:36:00,24.1,11.1,-100.00,WNW,301,0.0,0.0,57,-99.99,,,0.00,LWC V2.10 B1813,2013-03-04 06:36:00,
2013-03-04 01:41:00,23.9,10.9,-100.00,WNW,301,0.0,0.0,57,-99.99,,,0.00,LWC V2.10 B1813,2013-03-04 06:41:00,
2013-03-04 01:46:00,23.5,11.0,-100.00,WNW,301,0.0,0.0,58,-99.99,,,0.00,LWC V2.10 B1813,2013-03-04 06:46:00,
2013-03-04 01:51:00,23.4,11.2,-100.00,WNW,301,0.0,0.0,59,-99.99,,,0.00,LWC V2.10 B1813,2013-03-04 06:51:00,
2013-03-04 01:56:00,24.3,11.6,-100.00,WNW,301,0.0,0.0,58,-99.99,,,0.00,LWC V2.10 B1813,2013-03-04 06:56:00,
2013-03-04 02:01:00,24.3,10.9,-100.00,WNW,301,0.0,0.0,56,-99.99,,,0.00,LWC V2.10 B1813,2013-03-04 07:01:00,
2013-03-04 02:06:00,23.7,10.3,-100.00,WNW,301,0.0,0.0,56,-99.99,,,0.00,LWC V2.10 B1813,2013-03-04 07:06:00,
2013-03-04 02:11:00,24.1,11.1,-100.00,WNW,301,0.0,0.0,57,-99.99,,,0.00,LWC V2.10 B1813,2013-03-04 07:11:00,
2013-03-04 02:16:00,23.9,10.5,-100.00,WNW,301,0.0,0.0,56,-99.99,,,0.00,LWC V2.10 B1813,2013-03-04 07:16:00,
2013-03-04 02:21:00,23.7,10.3,-100.00,WNW,301,0.0,0.0,56,-99.99,,,0.00,LWC V2.10 B1813,2013-03-04 07:21:00,
2013-03-04 02:26:00,23.5,10.6,-100.00,WNW,301,0.0,0.0,57,-99.99,,,0.00,LWC V2.10 B1813,2013-03-04 07:26:00,
2013-03-04 02:31:00,23.4,10.4,-100.00,WNW,301,0.0,0.0,57,-99.99,,,0.00,LWC V2.10 B1813,2013-03-04 07:31:00,
2013-03-04 02:36:00,23.4,10.4,-100.00,WNW,301,0.0,0.0,57,-99.99,,,0.00,LWC V2.10 B1813,2013-03-04 07:36:00,
2013-03-04 02:41:00,24.3,10.0,-100.00,WNW,301,0.0,0.0,54,-99.99,,,0.00,LWC V2.10 B1813,2013-03-04 07:41:00,
2013-03-04 02:46:00,24.8,9.7,-100.00,WNW,301,0.0,0.0,52,-99.99,,,0.00,LWC V2.10 B1813,2013-03-04 07:46:00,
2013-03-04 02:51:00,25.0,8.6,-100.00,WNW,301,0.0,0.0,49,-99.99,,,0.00,LWC V2.10 B1813,2013-03-04 07:51:00,
2013-03-04 02:56:00,25.0,8.6,-100.00,WNW,301,0.0,0.0,49,-99.99,,,0.00,LWC V2.10 B1813,2013-03-04 07:56:00,
2013-03-04 03:01:00,25.0,8.1,-100.00,WNW,301,0.0,0.0,48,-99.99,,,0.00,LWC V2.10 B1813,2013-03-04 08:01:00,
2013-03-04 03:02:00,25.0,8.1,-100.00,WNW,301,0.0,0.0,48,-99.99,,,0.00,LWC V2.10 B1813,2013-03-04 08:02:00,
2013-03-04 03:07:00,24.4,8.1,-100.00,WNW,301,0.0,0.0,49,-99.99,,,0.00,LWC V2.10 B1813,2013-03-04 08:07:00,
2013-03-04 03:12:00,23.9,8.9,-100.00,WNW,301,0.0,0.0,52,-99.99,,,0.00,LWC V2.10 B1813,2013-03-04 08:12:00,
2013-03-04 03:17:00,24.4,8.9,-100.00,WNW,301,0.0,0.0,51,-99.99,,,0.00,LWC V2.10 B1813,2013-03-04 08:17:00,
2013-03-04 03:22:00,25.0,8.1,-100.00,WNW,301,0.0,0.0,48,-99.99,,,0.00,LWC V2.10 B1813,2013-03-04 08:22:00,
2013-03-04 03:27:00,25.2,7.8,-100.00,WNW,301,0.0,0.0,47,-99.99,,,0.00,LWC V2.10 B1813,2013-03-04 08:27:00,
2013-03-04 03:32:00,24.4,8.1,-100.00,WNW,301,0.0,0.0,49,-99.99,,,0.00,LWC V2.10 B1813,2013-03-04 08:32:00,
2013-03-04 03:37:00,23.5,8.1,-100.00,WNW,301,0.0,0.0,51,-99.99,,,0.00,LWC V2.10 B1813,2013-03-04 08:37:00,
2013-03-04 03:42:00,23.9,8.0,-100.00,WNW,301,0.0,0.0,50,-99.99,,,0.00,LWC V2.10 B1813,2013-03-04 08:42:00,
2013-03-04 03:47:00,23.5,8.1,-100.00,WNW,301,0.0,0.0,51,-99.99,,,0.00,LWC V2.10 B1813,2013-03-04 08:47:00,
2013-03-04 03:52:00,23.0,8.9,-100.00,WNW,301,0.0,0.0,54,-99.99,,,0.00,LWC V2.10 B1813,2013-03-04 08:52:00,
2013-03-04 03:57:00,22.6,9.3,-100.00,WNW,301,0.0,0.0,56,-99.99,,,0.00,LWC V2.10 B1813,2013-03-04 08:57:00,
2013-03-04 04:02:00,22.5,9.6,-100.00,WNW,301,0.0,0.0,57,-99.99,,,0.00,LWC V2.10 B1813,2013-03-04 09:02:00,
2013-03-04 04:07:00,22.5,9.2,-100.00,WNW,301,0.0,0.0,56,-99.99,,,0.00,LWC V2.10 B1813,2013-03-04 09:07:00,
2013-03-04 04:12:00,22.1,8.8,-100.00,WNW,301,0.0,0.0,56,-99.99,,,0.00,LWC V2.10 B1813,2013-03-04 09:12:00,
2013-03-04 04:17:00,21.9,9.8,-100.00,WNW,301,0.0,0.0,59,-99.99,,,0.00,LWC V2.10 B1813,2013-03-04 09:17:00,
2013-03-04 04:22:00,21.9,10.9,-100.00,WNW,301,0.0,0.0,62,-99.99,,,0.00,LWC V2.10 B1813,2013-03-04 09:22:00,
2013-03-04 04:27:00,21.9,11.3,-100.00,WNW,301,0.0,0.0,63,-99.99,,,0.00,LWC V2.10 B1813,2013-03-04 09:27:00,
2013-03-04 04:32:00,21.7,11.5,-100.00,WNW,301,0.0,0.0,64,-99.99,,,0.00,LWC V2.10 B1813,2013-03-04 09:32:00,
2013-03-04 04:37:00,21.7,11.1,-100.00,WNW,301,0.0,0.0,63,-99.99,,,0.00,LWC V2.10 B1813,2013-03-04 09:37:00,
2013-03-04 04:42:00,21.7,11.1,-100.00,WNW,301,0.0,0.0,63,-99.99,,,0.00,LWC V2.10 B1813,2013-03-04 09:42:00,
2013-03-04 04:47:00,21.4,10.8,-100.00,WNW,301,0.0,0.0,63,-99.99,,,0.00,LWC V2.10 B1813,2013-03-04 09:47:00,
2013-03-04 04:52:00,21.4,9.7,-100.00,WNW,301,0.0,0.0,60,-99.99,,,0.00,LWC V2.10 B1813,2013-03-04 09:52:00,
2013-03-04 04:57:00,21.6,9.5,-100.00,WNW,301,0.0,0.0,59,-99.99,,,0.00,LWC V2.10 B1813,2013-03-04 09:57:00,
2013-03-04 05:02:00,21.9,9.4,-100.00,WNW,301,0.0,0.0,58,-99.99,,,0.00,LWC V2.10 B1813,2013-03-04 10:02:00,
2013-03-04 05:07:00,22.1,9.2,-100.00,WNW,301,0.0,0.0,57,-99.99,,,0.00,LWC V2.10 B1813,2013-03-04 10:07:00,
2013-03-04 05:13:00,21.9,9.4,-100.00,WNW,301,0.0,0.0,58,-99.99,,,0.00,LWC V2.10 B1813,2013-03-04 10:13:00,
2013-03-04 05:18:00,21.6,9.5,-100.00,WNW,301,0.0,0.0,59,-99.99,,,0.00,LWC V2.10 B1813,2013-03-04 10:18:00,
2013-03-04 05:23:00,21.4,9.7,-100.00,WNW,301,0.0,0.0,60,-99.99,,,0.00,LWC V2.10 B1813,2013-03-04 10:23:00,
2013-03-04 05:28:00,21.4,10.1,-100.00,WNW,301,0.0,0.0,61,-99.99,,,0.00,LWC V2.10 B1813,2013-03-04 10:28:00,
2013-03-04 05:33:00,21.7,10.8,-100.00,WNW,301,0.0,0.0,62,-99.99,,,0.00,LWC V2.10 B1813,2013-03-04 10:33:00,
2013-03-04 05:38:00,21.7,10.8,-100.00,WNW,301,0.0,0.0,62,-99.99,,,0.00,LWC V2.10 B1813,2013-03-04 10:38:00,
2013-03-04 05:43:00,21.6,10.6,-100.00,WNW,301,0.0,0.0,62,-99.99,,,0.00,LWC V2.10 B1813,2013-03-04 10:43:00,
2013-03-04 05:48:00,21.6,10.6,-100.00,WNW,301,0.0,0.0,62,-99.99,,,0.00,LWC V2.10 B1813,2013-03-04 10:48:00,
2013-03-04 05:53:00,21.6,10.6,-100.00,WNW,301,0.0,0.0,62,-99.99,,,0.00,LWC V2.10 B1813,2013-03-04 10:53:00,
2013-03-04 05:58:00,21.6,10.6,-100.00,WNW,301,0.0,0.0,62,-99.99,,,0.00,LWC V2.10 B1813,2013-03-04 10:58:00,
2013-03-04 06:03:00,21.6,10.6,-100.00,WNW,301,0.0,0.0,62,-99.99,,,0.00,LWC V2.10 B1813,2013-03-04 11:03:00,
2013-03-04 06:08:00,21.6,10.6,-100.00,WNW,301,0.0,0.0,62,-99.99,,,0.00,LWC V2.10 B1813,2013-03-04 11:08:00,
2013-03-04 06:13:00,21.6,10.6,-100.00,WNW,301,0.0,0.0,62,-99.99,,,0.00,LWC V2.10 B1813,2013-03-04 11:13:00,
2013-03-04 06:18:00,21.6,10.6,-100.00,WNW,301,0.0,0.0,62,-99.99,,,0.00,LWC V2.10 B1813,2013-03-04 11:18:00,
2013-03-04 06:23:00,21.6,10.6,-100.00,WNW,301,0.0,0.0,62,-99.99,,,0.00,LWC V2.10 B1813,2013-03-04 11:23:00,
2013-03-04 06:28:00,21.4,10.4,-100.00,WNW,301,0.0,0.0,62,-99.99,,,0.00,LWC V2.10 B1813,2013-03-04 11:28:00,
2013-03-04 06:33:00,21.4,10.8,-100.00,WNW,301,0.0,0.0,63,-99.99,,,0.00,LWC V2.10 B1813,2013-03-04 11:33:00,
2013-03-04 06:38:00,21.2,10.6,-100.00,WNW,301,0.0,0.0,63,-99.99,,,0.00,LWC V2.10 B1813,2013-03-04 11:38:00,
2013-03-04 06:43:00,21.2,11.0,-100.00,WNW,301,0.0,0.0,64,-99.99,,,0.00,LWC V2.10 B1813,2013-03-04 11:43:00,
2013-03-04 06:48:00,21.2,11.0,-100.00,WNW,301,0.0,0.0,64,-99.99,,,0.00,LWC V2.10 B1813,2013-03-04 11:48:00,
2013-03-04 06:53:00,21.2,11.0,-100.00,WNW,301,0.0,0.0,64,-99.99,,,0.00,LWC V2.10 B1813,2013-03-04 11:53:00,
2013-03-04 06:58:00,21.0,10.8,-100.00,WNW,301,0.0,0.0,64,-99.99,,,0.00,LWC V2.10 B1813,2013-03-04 11:58:00,
2013-03-04 07:03:00,21.0,11.1,-100.00,WNW,301,0.0,0.0,65,-99.99,,,0.00,LWC V2.10 B1813,2013-03-04 12:03:00,
2013-03-04 07:08:00,21.0,11.1,-100.00,WNW,301,0.0,0.0,65,-99.99,,,0.00,LWC V2.10 B1813,2013-03-04 12:08:00,
2013-03-04 07:13:00,21.0,11.1,-100.00,WNW,301,0.0,0.0,65,-99.99,,,0.00,LWC V2.10 B1813,2013-03-04 12:13:00,
2013-03-04 07:18:00,21.0,11.1,-100.00,WNW,301,0.0,0.0,65,-99.99,,,0.00,LWC V2.10 B1813,2013-03-04 12:18:00,
2013-03-04 07:23:00,21.2,11.3,-100.00,WNW,301,0.0,0.0,65,-99.99,,,0.00,LWC V2.10 B1813,2013-03-04 12:23:00,
2013-03-04 07:28:00,21.0,11.1,-100.00,WNW,301,0.0,0.0,65,-99.99,,,0.00,LWC V2.10 B1813,2013-03-04 12:28:00,
2013-03-04 07:33:00,21.0,11.5,-100.00,WNW,301,0.0,0.0,66,-99.99,,,0.00,LWC V2.10 B1813,2013-03-04 12:33:00,
2013-03-04 07:38:00,21.0,11.5,-100.00,WNW,301,0.0,0.0,66,-99.99,,,0.00,LWC V2.10 B1813,2013-03-04 12:38:00,
2013-03-04 07:43:00,21.2,11.6,-100.00,WNW,301,0.0,0.0,66,-99.99,,,0.00,LWC V2.10 B1813,2013-03-04 12:43:00,
2013-03-04 07:48:00,21.4,11.5,-100.00,WNW,301,0.0,0.0,65,-99.99,,,0.00,LWC V2.10 B1813,2013-03-04 12:48:00,
2013-03-04 07:53:00,21.6,11.6,-100.00,WNW,301,0.0,0.0,65,-99.99,,,0.00,LWC V2.10 B1813,2013-03-04 12:53:00,
2013-03-04 07:58:00,21.9,11.6,-100.00,WNW,301,0.0,0.0,64,-99.99,,,0.00,LWC V2.10 B1813,2013-03-04 12:58:00,
2013-03-04 08:03:00,22.3,12.0,-100.00,WNW,301,0.0,0.0,64,-99.99,,,0.00,LWC V2.10 B1813,2013-03-04 13:03:00,
2013-03-04 08:08:00,22.8,12.1,-100.00,WNW,301,0.0,0.0,63,-99.99,,,0.00,LWC V2.10 B1813,2013-03-04 13:08:00,
2013-03-04 08:13:00,23.4,11.6,-100.00,WNW,301,0.0,0.0,60,-99.99,,,0.00,LWC V2.10 B1813,2013-03-04 13:13:00,
2013-03-04 08:18:00,23.5,11.3,-100.00,WNW,301,0.0,0.0,59,-99.99,,,0.00,LWC V2.10 B1813,2013-03-04 13:18:00,
2013-03-04 08:23:00,23.9,11.7,-100.00,WNW,301,0.0,0.0,59,-99.99,,,0.00,LWC V2.10 B1813,2013-03-04 13:23:00,
2013-03-04 08:28:00,23.7,11.5,-100.00,WNW,301,0.0,0.0,59,-99.99,,,0.00,LWC V2.10 B1813,2013-03-04 13:28:00,
2013-03-04 08:33:00,24.4,12.2,-100.00,WNW,301,0.0,0.0,59,-99.99,,,0.00,LWC V2.10 B1813,2013-03-04 13:33:00,
2013-03-04 08:38:00,25.3,12.3,-100.00,WNW,301,0.0,0.0,57,-99.99,,,0.00,LWC V2.10 B1813,2013-03-04 13:38:00,
2013-03-04 08:43:00,26.1,12.5,-100.00,WNW,301,0.0,0.0,56,-99.99,,,0.00,LWC V2.10 B1813,2013-03-04 13:43:00,
2013-03-04 08:48:00,26.6,13.0,-100.00,WNW,301,0.0,0.0,56,-99.99,,,0.00,LWC V2.10 B1813,2013-03-04 13:48:00,
2013-03-04 08:53:00,27.9,13.4,-100.00,WNW,301,0.0,0.0,54,-99.99,,,0.00,LWC V2.10 B1813,2013-03-04 13:53:00,
2013-03-04 08:58:00,28.2,12.9,-100.00,WNW,301,0.0,0.0,52,-99.99,,,0.00,LWC V2.10 B1813,2013-03-04 13:58:00,
2013-03-04 09:03:00,27.5,12.2,-100.00,WNW,301,0.0,0.0,52,-99.99,,,0.00,LWC V2.10 B1813,2013-03-04 14:03:00,
2013-03-04 09:08:00,28.0,12.7,-100.00,WNW,301,0.0,0.0,52,-99.99,,,0.00,LWC V2.10 B1813,2013-03-04 14:08:00,
2013-03-04 09:13:00,27.9,13.0,-100.00,WNW,301,0.0,0.0,53,-99.99,,,0.00,LWC V2.10 B1813,2013-03-04 14:13:00,
2013-03-04 09:18:00,27.9,13.0,-100.00,WNW,301,0.0,0.0,53,-99.99,,,0.00,LWC V2.10 B1813,2013-03-04 14:18:00,
2013-03-04 09:23:00,28.8,13.8,-100.00,WNW,301,0.0,0.0,53,-99.99,,,0.00,LWC V2.10 B1813,2013-03-04 14:23:00,
2013-03-04 09:28:00,28.6,12.8,-100.00,WNW,301,0.0,0.0,51,-99.99,,,0.00,LWC V2.10 B1813,2013-03-04 14:28:00,
2013-03-04 09:33:00,28.6,13.6,-100.00,WNW,301,0.0,0.0,53,-99.99,,,0.00,LWC V2.10 B1813,2013-03-04 14:33:00,
2013-03-04 09:38:00,29.3,13.9,-100.00,WNW,301,0.0,0.0,52,-99.99,,,0.00,LWC V2.10 B1813,2013-03-04 14:38:00,
2013-03-04 09:43:00,29.1,13.3,-100.00,WNW,301,0.0,0.0,51,-99.99,,,0.00,LWC V2.10 B1813,2013-03-04 14:43:00,
2013-03-04 09:48:00,29.1,12.4,-100.00,WNW,299,0.0,0.0,49,-99.99,,,0.00,LWC V2.10 B1813,2013-03-04 14:48:00,
2013-03-04 09:53:00,30.2,14.3,-100.00,WNW,299,0.0,0.0,51,-99.99,,,0.00,LWC V2.10 B1813,2013-03-04 14:53:00,
2013-03-04 09:58:00,30.2,13.4,-100.00,WNW,298,0.0,0.0,49,-99.99,,,0.00,LWC V2.10 B1813,2013-03-04 14:58:00,
2013-03-04 10:03:00,30.9,13.6,-100.00,WNW,298,0.0,0.0,48,-99.99,,,0.00,LWC V2.10 B1813,2013-03-04 15:03:00,
2013-03-04 10:08:00,30.7,12.4,-100.00,WNW,296,0.0,0.0,46,-99.99,,,0.00,LWC V2.10 B1813,2013-03-04 15:08:00,
2013-03-04 10:13:00,31.3,12.4,-100.00,South,189,0.0,0.0,45,-99.99,,,0.00,LWC V2.10 B1813,2013-03-04 15:13:00,
2013-03-04 10:18:00,31.5,13.1,-100.00,South,189,0.0,0.0,46,-99.99,,,0.00,LWC V2.10 B1813,2013-03-04 15:18:00,
2013-03-04 10:23:00,32.0,12.1,-100.00,South,189,0.0,0.0,43,-99.99,,,0.00,LWC V2.10 B1813,2013-03-04 15:23:00,
2013-03-04 10:28:00,32.2,11.7,-100.00,South,189,0.0,0.0,42,-99.99,,,0.00,LWC V2.10 B1813,2013-03-04 15:28:00,
2013-03-04 10:33:00,31.5,11.0,-100.00,South,189,0.0,0.0,42,-99.99,,,0.00,LWC V2.10 B1813,2013-03-04 15:33:00,
2013-03-04 10:38:00,32.2,11.7,-100.00,South,189,0.0,0.0,42,-99.99,,,0.00,LWC V2.10 B1813,2013-03-04 15:38:00,
2013-03-04 10:43:00,33.1,13.0,-100.00,South,189,5.8,6.3,43,-99.99,,,0.00,LWC V2.10 B1813,2013-03-04 15:43:00,
2013-03-04 10:48:00,33.3,12.7,-100.00,South,189,5.4,8.3,42,-99.99,,,0.00,LWC V2.10 B1813,2013-03-04 15:48:00,
2013-03-04 10:53:00,33.6,13.0,-100.00,South,189,5.8,6.7,42,-99.99,,,0.00,LWC V2.10 B1813,2013-03-04 15:53:00,
2013-03-04 10:58:00,33.8,12.6,-100.00,South,189,13.2,13.2,41,-99.99,,,0.00,LWC V2.10 B1813,2013-03-04 15:58:00,
2013-03-04 11:03:00,34.0,13.3,-100.00,South,189,4.9,8.1,42,-99.99,,,0.00,LWC V2.10 B1813,2013-03-04 16:03:00,
2013-03-04 11:08:00,35.1,13.8,-100.00,South,189,3.1,5.4,41,-99.99,,,0.00,LWC V2.10 B1813,2013-03-04 16:08:00,
2013-03-04 11:13:00,34.3,12.6,-100.00,South,189,7.6,8.3,40,-99.99,,,0.00,LWC V2.10 B1813,2013-03-04 16:13:00,
2013-03-04 11:18:00,34.9,13.6,-100.00,South,189,4.0,5.8,41,-99.99,,,0.00,LWC V2.10 B1813,2013-03-04 16:18:00,
2013-03-04 11:23:00,35.6,14.2,-100.00,South,189,8.3,8.3,41,-99.99,,,0.00,LWC V2.10 B1813,2013-03-04 16:23:00,
2013-03-04 11:28:00,34.9,13.0,-100.00,South,189,4.0,6.3,40,-99.99,,,0.00,LWC V2.10 B1813,2013-03-04 16:28:00,
2013-03-04 11:33:00,35.6,14.2,-100.00,South,189,8.1,8.1,41,-99.99,,,0.00,LWC V2.10 B1813,2013-03-04 16:33:00,
2013-03-04 11:38:00,35.4,14.6,-100.00,South,189,8.7,8.7,42,-99.99,,,0.00,LWC V2.10 B1813,2013-03-04 16:38:00,
2013-03-04 11:43:00,35.6,13.1,-100.00,South,189,7.6,8.1,39,-99.99,,,0.00,LWC V2.10 B1813,2013-03-04 16:43:00,
2013-03-04 11:49:00,35.1,13.2,-100.00,South,189,3.1,6.3,40,-99.99,,,0.00,LWC V2.10 B1813,2013-03-04 16:49:00,
2013-03-04 11:54:00,36.1,14.2,-100.00,SSE,156,4.0,7.6,40,-99.99,,,0.00,LWC V2.10 B1813,2013-03-04 16:54:00,
2013-03-04 11:59:00,35.6,13.1,-100.00,South,181,5.4,8.3,39,-99.99,,,0.00,LWC V2.10 B1813,2013-03-04 16:59:00,
2013-03-04 12:04:00,36.5,14.5,-100.00,WSW,251,5.8,9.6,40,-99.99,,,0.00,LWC V2.10 B1813,2013-03-04 17:04:00,
2013-03-04 12:09:00,37.0,14.4,-100.00,SSE,154,8.7,10.5,39,-99.99,,,0.00,LWC V2.10 B1813,2013-03-04 17:09:00,
2013-03-04 12:14:00,36.3,13.2,-100.00,South,177,5.8,8.7,38,-99.99,,,0.00,LWC V2.10 B1813,2013-03-04 17:14:00,
2013-03-04 12:19:00,37.6,14.9,-100.00,SE,143,3.6,8.1,39,-99.99,,,0.00,LWC V2.10 B1813,2013-03-04 17:19:00,
2013-03-04 12:24:00,38.3,15.5,-100.00,SSE,152,5.8,5.8,39,-99.99,,,0.00,LWC V2.10 B1813,2013-03-04 17:24:00,
2013-03-04 12:29:00,38.8,14.8,-100.00,South,181,6.3,6.7,37,-99.99,,,0.00,LWC V2.10 B1813,2013-03-04 17:29:00,
2013-03-04 12:34:00,39.4,14.0,-100.00,SSE,158,5.8,7.2,35,-99.99,,,0.00,LWC V2.10 B1813,2013-03-04 17:34:00,
2013-03-04 12:39:00,38.5,12.6,-100.00,South,180,5.4,7.6,34,-99.99,,,0.00,LWC V2.10 B1813,2013-03-04 17:39:00,
2013-03-04 12:44:00,38.1,14.2,-100.00,SSW,200,7.6,7.6,37,-99.99,,,0.00,LWC V2.10 B1813,2013-03-04 17:44:00,
2013-03-04 12:49:00,39.2,13.9,-100.00,SSW,202,5.4,8.3,35,-99.99,,,0.00,LWC V2.10 B1813,2013-03-04 17:49:00,
2013-03-04 12:54:00,39.0,13.7,-100.00,SSE,150,7.6,8.1,35,-99.99,,,0.00,LWC V2.10 B1813,2013-03-04 17:54:00,
2013-03-04 12:59:00,38.8,12.9,-100.00,South,177,4.9,5.8,34,-99.99,,,0.00,LWC V2.10 B1813,2013-03-04 17:59:00,
2013-03-04 13:04:00,38.3,11.1,-100.00,SW,214,8.3,12.8,32,-99.99,,,0.00,LWC V2.10 B1813,2013-03-04 18:04:00,
2013-03-04 13:09:00,39.4,12.7,-100.00,NW,322,3.1,5.4,33,-99.99,,,0.00,LWC V2.10 B1813,2013-03-04 18:09:00,
2013-03-04 13:14:00,38.5,11.9,-100.00,South,182,6.3,8.1,33,-99.99,,,0.00,LWC V2.10 B1813,2013-03-04 18:14:00,
2013-03-04 13:19:00,39.6,13.5,-100.00,SW,220,5.4,7.6,34,-99.99,,,0.00,LWC V2.10 B1813,2013-03-04 18:19:00,
2013-03-04 13:24:00,37.9,10.7,-100.00,SW,225,3.1,6.3,32,-99.99,,,0.00,LWC V2.10 B1813,2013-03-04 18:24:00,
2013-03-04 13:29:00,38.5,11.9,-100.00,SSW,198,3.6,5.4,33,-99.99,,,0.00,LWC V2.10 B1813,2013-03-04 18:29:00,
2013-03-04 13:34:00,40.3,12.8,-100.00,SW,214,5.8,7.6,32,-99.99,,,0.00,LWC V2.10 B1813,2013-03-04 18:34:00,
2013-03-04 13:39:00,40.8,14.0,-100.00,South,187,7.6,7.6,33,-99.99,,,0.00,LWC V2.10 B1813,2013-03-04 18:39:00,
2013-03-04 13:44:00,40.1,12.6,-100.00,SW,233,6.3,8.1,32,-99.99,,,0.00,LWC V2.10 B1813,2013-03-04 18:44:00,
2013-03-04 13:49:00,40.5,12.2,-100.00,SE,125,4.0,6.3,31,-99.99,,,0.00,LWC V2.10 B1813,2013-03-04 18:49:00,
2013-03-04 13:54:00,40.3,12.1,-100.00,SSW,195,8.7,8.7,31,-99.99,,,0.00,LWC V2.10 B1813,2013-03-04 18:54:00,
2013-03-04 13:59:00,40.5,12.2,-100.00,South,186,8.3,8.3,31,-99.99,,,0.00,LWC V2.10 B1813,2013-03-04 18:59:00,
2013-03-04 14:01:00,40.6,12.4,-100.00,SSE,166,4.9,5.8,31,-99.99,,,0.00,LWC V2.10 B1813,2013-03-04 19:01:00,
2013-03-04 14:06:00,40.1,11.9,-100.00,SSE,153,5.8,6.3,31,-99.99,,,0.00,LWC V2.10 B1813,2013-03-04 19:06:00,
2013-03-04 14:08:00,40.3,12.1,-100.00,WSW,239,6.3,6.3,31,-99.99,,,0.00,LWC V2.10 B1813,2013-03-04 19:08:00,
2013-03-04 14:13:00,40.5,13.0,-100.00,SSE,156,4.0,4.9,32,-99.99,,,0.00,LWC V2.10 B1813,2013-03-04 19:13:00,
2013-03-04 14:18:00,38.8,10.1,-100.00,West,261,5.8,8.7,30,-99.99,,,0.00,LWC V2.10 B1813,2013-03-04 19:18:00,
2013-03-04 14:23:00,41.4,13.0,-100.00,SW,225,4.9,6.3,31,-99.99,,,0.00,LWC V2.10 B1813,2013-03-04 19:23:00,
2013-03-04 14:28:00,41.7,12.6,-100.00,South,183,8.7,8.7,30,-99.99,,,0.00,LWC V2.10 B1813,2013-03-04 19:28:00,
2013-03-04 14:33:00,41.7,12.6,-100.00,SSW,197,5.4,6.3,30,-99.99,,,0.00,LWC V2.10 B1813,2013-03-04 19:33:00,
2013-03-04 14:38:00,40.1,11.9,-100.00,West,278,5.4,5.8,31,-99.99,,,0.00,LWC V2.10 B1813,2013-03-04 19:38:00,
2013-03-04 14:43:00,39.9,11.0,-100.00,SSW,192,4.9,6.3,30,-99.99,,,0.00,LWC V2.10 B1813,2013-03-04 19:43:00,
2013-03-04 14:48:00,41.0,11.2,-100.00,SSE,167,4.9,5.4,29,-99.99,,,0.00,LWC V2.10 B1813,2013-03-04 19:48:00,
2013-03-04 14:53:00,42.1,12.1,-100.00,SW,234,5.4,5.8,29,-99.99,,,0.00,LWC V2.10 B1813,2013-03-04 19:53:00,
2013-03-04 14:58:00,39.2,10.4,-100.00,SW,228,5.8,8.1,30,-99.99,,,0.00,LWC V2.10 B1813,2013-03-04 19:58:00,
2013-03-04 15:03:00,41.2,12.1,-100.00,SW,231,6.3,6.3,30,-99.99,,,0.00,LWC V2.10 B1813,2013-03-04 20:03:00,
2013-03-04 15:08:00,41.2,13.6,-100.00,SSW,194,5.4,6.3,32,-99.99,,,0.00,LWC V2.10 B1813,2013-03-04 20:08:00,
2013-03-04 15:13:00,42.4,14.0,-100.00,SSE,156,5.8,7.6,31,-99.99,,,0.00,LWC V2.10 B1813,2013-03-04 20:13:00,
2013-03-04 15:18:00,42.4,13.2,-100.00,South,185,5.8,7.6,30,-99.99,,,0.00,LWC V2.10 B1813,2013-03-04 20:18:00,
2013-03-04 15:23:00,42.1,12.1,-100.00,SSW,203,5.8,7.6,29,-99.99,,,0.00,LWC V2.10 B1813,2013-03-04 20:23:00,
2013-03-04 15:28:00,42.4,12.5,-100.00,SSW,209,0.0,5.8,29,-99.99,,,0.00,LWC V2.10 B1813,2013-03-04 20:28:00,
2013-03-04 15:33:00,43.0,12.9,-100.00,SW,232,6.3,6.3,29,-99.99,,,0.00,LWC V2.10 B1813,2013-03-04 20:33:00,
2013-03-04 15:38:00,41.4,11.5,-100.00,WNW,302,3.1,3.1,29,-99.99,,,0.00,LWC V2.10 B1813,2013-03-04 20:38:00,
2013-03-04 15:43:00,42.1,12.1,-100.00,SW,217,3.1,6.3,29,-99.99,,,0.00,LWC V2.10 B1813,2013-03-04 20:43:00,
2013-03-04 15:48:00,40.6,10.9,-100.00,SSW,205,5.4,6.3,29,-99.99,,,0.00,LWC V2.10 B1813,2013-03-04 20:48:00,
2013-03-04 15:53:00,40.3,11.3,-100.00,SSW,193,4.0,5.8,30,-99.99,,,0.00,LWC V2.10 B1813,2013-03-04 20:53:00,
2013-03-04 15:58:00,40.1,11.2,-100.00,WSW,255,6.7,7.2,30,-99.99,,,0.00,LWC V2.10 B1813,2013-03-04 20:58:00,
2013-03-04 16:03:00,41.2,12.1,-100.00,SSW,213,3.6,5.8,30,-99.99,,,0.00,LWC V2.10 B1813,2013-03-04 21:03:00,
2013-03-04 16:08:00,42.1,12.9,-100.00,SE,146,4.0,4.9,30,-99.99,,,0.00,LWC V2.10 B1813,2013-03-04 21:08:00,
2013-03-04 16:13:00,41.0,11.2,-100.00,SSW,207,3.6,6.3,29,-99.99,,,0.00,LWC V2.10 B1813,2013-03-04 21:13:00,
2013-03-04 16:18:00,40.5,11.5,-100.00,SW,233,5.4,5.8,30,-99.99,,,0.00,LWC V2.10 B1813,2013-03-04 21:18:00,
2013-03-04 16:23:00,42.1,12.1,-100.00,South,176,3.6,4.0,29,-99.99,,,0.00,LWC V2.10 B1813,2013-03-04 21:23:00,
2013-03-04 16:28:00,42.8,12.8,-100.00,South,170,4.5,4.9,29,-99.99,,,0.00,LWC V2.10 B1813,2013-03-04 21:28:00,
2013-03-04 16:33:00,41.7,11.8,-100.00,SSW,209,4.0,7.6,29,-99.99,,,0.00,LWC V2.10 B1813,2013-03-04 21:33:00,
2013-03-04 16:38:00,39.9,10.3,-100.00,SW,227,3.6,5.4,29,-99.99,,,0.00,LWC V2.10 B1813,2013-03-04 21:38:00,
2013-03-04 16:43:00,39.9,10.3,-100.00,WNW,289,0.0,4.0,29,-99.99,,,0.00,LWC V2.10 B1813,2013-03-04 21:43:00,
2013-03-04 16:48:00,40.5,11.5,-100.00,WNW,303,0.0,0.0,30,-99.99,,,0.00,LWC V2.10 B1813,2013-03-04 21:48:00,
2013-03-04 16:53:00,40.8,11.8,-100.00,SW,232,3.1,3.6,30,-99.99,,,0.00,LWC V2.10 B1813,2013-03-04 21:53:00,
2013-03-04 16:58:00,40.5,11.5,-100.00,West,276,2.7,3.6,30,-99.99,,,0.00,LWC V2.10 B1813,2013-03-04 21:58:00,
2013-03-04 17:03:00,40.3,11.3,-100.00,SSW,206,3.6,5.4,30,-99.99,,,0.00,LWC V2.10 B1813,2013-03-04 22:03:00,
2013-03-04 17:08:00,40.1,11.2,-100.00,South,170,3.1,3.6,30,-99.99,,,0.00,LWC V2.10 B1813,2013-03-04 22:08:00,
2013-03-04 17:13:00,40.1,11.2,-100.00,SSE,155,3.6,3.6,30,-99.99,,,0.00,LWC V2.10 B1813,2013-03-04 22:13:00,
2013-03-04 17:18:00,39.9,11.0,-100.00,SSE,150,0.0,4.0,30,-99.99,,,0.00,LWC V2.10 B1813,2013-03-04 22:18:00,
2013-03-04 17:23:00,39.6,10.0,-100.00,South,173,3.6,4.0,29,-99.99,,,0.00,LWC V2.10 B1813,2013-03-04 22:23:00,
2013-03-04 17:28:00,39.2,9.6,-100.00,South,173,0.0,2.7,29,-99.99,,,0.00,LWC V2.10 B1813,2013-03-04 22:28:00,
2013-03-04 17:33:00,39.0,10.2,-100.00,South,173,0.0,0.0,30,-99.99,,,0.00,LWC V2.10 B1813,2013-03-04 22:33:00,
2013-03-04 17:38:00,38.8,10.1,-100.00,South,178,0.0,0.0,30,-99.99,,,0.00,LWC V2.10 B1813,2013-03-04 22:38:00,
2013-03-04 17:44:00,38.3,9.6,-100.00,SW,231,0.0,0.0,30,-99.99,,,0.00,LWC V2.10 B1813,2013-03-04 22:44:00,
2013-03-04 17:49:00,38.3,9.6,-100.00,SW,232,0.0,0.0,30,-99.99,,,0.00,LWC V2.10 B1813,2013-03-04 22:49:00,
2013-03-04 17:54:00,38.1,9.5,-100.00,SW,231,0.0,0.0,30,-99.99,,,0.00,LWC V2.10 B1813,2013-03-04 22:54:00,
2013-03-04 17:59:00,37.8,9.1,-100.00,SW,231,0.0,0.0,30,-99.99,,,0.00,LWC V2.10 B1813,2013-03-04 22:59:00,
2013-03-04 18:04:00,37.6,9.0,-100.00,SW,231,0.0,0.0,30,-99.99,,,0.00,LWC V2.10 B1813,2013-03-04 23:04:00,
2013-03-04 18:09:00,37.4,8.8,-100.00,SW,231,0.0,0.0,30,-99.99,,,0.00,LWC V2.10 B1813,2013-03-04 23:09:00,
2013-03-04 18:14:00,36.9,8.4,-100.00,SW,231,0.0,0.0,30,-99.99,,,0.00,LWC V2.10 B1813,2013-03-04 23:14:00,
2013-03-04 18:19:00,36.7,8.9,-100.00,SW,231,0.0,0.0,31,-99.99,,,0.00,LWC V2.10 B1813,2013-03-04 23:19:00,
2013-03-04 18:24:00,36.1,8.5,-100.00,SW,232,0.0,0.0,31,-99.99,,,0.00,LWC V2.10 B1813,2013-03-04 23:24:00,
2013-03-04 18:29:00,35.8,8.1,-100.00,SW,231,0.0,0.0,31,-99.99,,,0.00,LWC V2.10 B1813,2013-03-04 23:29:00,
2013-03-04 18:34:00,36.0,8.3,-100.00,West,259,0.0,0.0,31,-99.99,,,0.00,LWC V2.10 B1813,2013-03-04 23:34:00,
2013-03-04 18:39:00,35.8,8.1,-100.00,West,259,0.0,0.0,31,-99.99,,,0.00,LWC V2.10 B1813,2013-03-04 23:39:00,
2013-03-04 18:44:00,35.6,8.7,-100.00,West,259,0.0,0.0,32,-99.99,,,0.00,LWC V2.10 B1813,2013-03-04 23:44:00,
2013-03-04 18:49:00,35.4,9.2,-100.00,West,259,0.0,0.0,33,-99.99,,,0.00,LWC V2.10 B1813,2013-03-04 23:49:00,
2013-03-04 18:54:00,35.1,8.9,-100.00,West,259,0.0,0.0,33,-99.99,,,0.00,LWC V2.10 B1813,2013-03-04 23:54:00,
2013-03-04 18:59:00,34.9,8.7,-100.00,West,259,0.0,0.0,33,-99.99,,,0.00,LWC V2.10 B1813,2013-03-04 23:59:00,
2013-03-04 19:04:00,34.9,8.7,-100.00,West,259,0.0,0.0,33,-99.99,,,0.00,LWC V2.10 B1813,2013-03-05 00:04:00,
2013-03-04 19:09:00,34.9,9.4,-100.00,West,269,0.0,0.0,34,-99.99,,,0.00,LWC V2.10 B1813,2013-03-05 00:09:00,
2013-03-04 19:14:00,34.5,9.7,-100.00,West,271,0.0,0.0,35,-99.99,,,0.00,LWC V2.10 B1813,2013-03-05 00:14:00,
2013-03-04 19:19:00,34.3,8.9,-100.00,West,271,0.0,0.0,34,-99.99,,,0.00,LWC V2.10 B1813,2013-03-05 00:19:00,
2013-03-04 19:24:00,34.0,9.2,-100.00,West,271,0.0,0.0,35,-99.99,,,0.00,LWC V2.10 B1813,2013-03-05 00:24:00,
2013-03-04 19:29:00,33.8,9.1,-100.00,West,271,0.0,0.0,35,-99.99,,,0.00,LWC V2.10 B1813,2013-03-05 00:29:00,
2013-03-04 19:34:00,34.0,9.2,-100.00,West,271,0.0,0.0,35,-99.99,,,0.00,LWC V2.10 B1813,2013-03-05 00:34:00,
2013-03-04 19:39:00,33.8,9.1,-100.00,West,271,0.0,0.0,35,-99.99,,,0.00,LWC V2.10 B1813,2013-03-05 00:39:00,
2013-03-04 19:44:00,33.8,9.1,-100.00,West,271,0.0,0.0,35,-99.99,,,0.00,LWC V2.10 B1813,2013-03-05 00:44:00,
2013-03-04 19:49:00,33.8,9.7,-100.00,West,271,0.0,0.0,36,-99.99,,,0.00,LWC V2.10 B1813,2013-03-05 00:49:00,
2013-03-04 19:54:00,33.8,9.7,-100.00,West,271,0.0,0.0,36,-99.99,,,0.00,LWC V2.10 B1813,2013-03-05 00:54:00,
2013-03-04 19:59:00,33.8,9.7,-100.00,West,271,0.0,0.0,36,-99.99,,,0.00,LWC V2.10 B1813,2013-03-05 00:59:00,
2013-03-04 20:04:00,34.2,10.0,-100.00,West,271,0.0,0.0,36,-99.99,,,0.00,LWC V2.10 B1813,2013-03-05 01:04:00,
2013-03-04 20:09:00,34.3,10.2,-100.00,West,271,0.0,0.0,36,-99.99,,,0.00,LWC V2.10 B1813,2013-03-05 01:09:00,
2013-03-04 20:14:00,34.3,10.2,-100.00,West,278,0.0,0.0,36,-99.99,,,0.00,LWC V2.10 B1813,2013-03-05 01:14:00,
2013-03-04 20:19:00,34.3,9.6,-100.00,West,279,0.0,0.0,35,-99.99,,,0.00,LWC V2.10 B1813,2013-03-05 01:19:00,
2013-03-04 20:24:00,34.0,9.9,-100.00,WNW,292,0.0,0.0,36,-99.99,,,0.00,LWC V2.10 B1813,2013-03-05 01:24:00,
2013-03-04 20:29:00,34.2,10.0,-100.00,WNW,293,0.0,0.0,36,-99.99,,,0.00,LWC V2.10 B1813,2013-03-05 01:29:00,
2013-03-04 20:34:00,34.0,9.9,-100.00,WNW,293,0.0,0.0,36,-99.99,,,0.00,LWC V2.10 B1813,2013-03-05 01:34:00,
2013-03-04 20:39:00,34.2,10.0,-100.00,WNW,293,0.0,0.0,36,-99.99,,,0.00,LWC V2.10 B1813,2013-03-05 01:39:00,
2013-03-04 20:44:00,34.3,10.2,-100.00,WNW,293,0.0,0.0,36,-99.99,,,0.00,LWC V2.10 B1813,2013-03-05 01:44:00,
2013-03-04 20:49:00,34.2,10.6,-100.00,WNW,293,0.0,0.0,37,-99.99,,,0.00,LWC V2.10 B1813,2013-03-05 01:49:00,
2013-03-04 20:54:00,34.0,10.5,-100.00,WNW,297,0.0,0.0,37,-99.99,,,0.00,LWC V2.10 B1813,2013-03-05 01:54:00,
2013-03-04 20:59:00,34.0,11.1,-100.00,WNW,297,0.0,0.0,38,-99.99,,,0.00,LWC V2.10 B1813,2013-03-05 01:59:00,
2013-03-04 21:04:00,33.8,11.5,-100.00,WNW,297,0.0,0.0,39,-99.99,,,0.00,LWC V2.10 B1813,2013-03-05 02:04:00,
2013-03-04 21:09:00,33.6,11.9,-100.00,WNW,297,0.0,0.0,40,-99.99,,,0.00,LWC V2.10 B1813,2013-03-05 02:09:00,
2013-03-04 21:14:00,33.6,11.9,-100.00,WNW,297,0.0,0.0,40,-99.99,,,0.00,LWC V2.10 B1813,2013-03-05 02:14:00,
2013-03-04 21:19:00,33.4,12.3,-100.00,WNW,297,0.0,0.0,41,-99.99,,,0.00,LWC V2.10 B1813,2013-03-05 02:19:00,
2013-03-04 21:24:00,33.4,12.3,-100.00,NNE,30,4.9,4.9,41,-99.99,,,0.00,LWC V2.10 B1813,2013-03-05 02:24:00,
2013-03-04 21:29:00,33.4,12.3,-100.00,NNE,24,3.6,3.6,41,-99.99,,,0.00,LWC V2.10 B1813,2013-03-05 02:29:00,
2013-03-04 21:34:00,33.4,12.3,-100.00,NNE,24,3.1,3.6,41,-99.99,,,0.00,LWC V2.10 B1813,2013-03-05 02:34:00,
2013-03-04 21:39:00,33.3,12.1,-100.00,NNE,24,3.6,3.6,41,-99.99,,,0.00,LWC V2.10 B1813,2013-03-05 02:39:00,
2013-03-04 21:44:00,33.3,12.1,-100.00,NNE,23,3.6,4.0,41,-99.99,,,0.00,LWC V2.10 B1813,2013-03-05 02:44:00,
2013-03-04 21:49:00,33.3,12.1,-100.00,NNE,33,4.0,4.0,41,-99.99,,,0.00,LWC V2.10 B1813,2013-03-05 02:49:00,
2013-03-04 21:54:00,33.3,12.1,-100.00,NNE,13,3.1,3.6,41,-99.99,,,0.00,LWC V2.10 B1813,2013-03-05 02:54:00,
2013-03-04 21:59:00,33.1,12.5,-100.00,NNE,21,3.1,4.0,42,-99.99,,,0.00,LWC V2.10 B1813,2013-03-05 02:59:00,
2013-03-04 22:04:00,33.1,12.5,-100.00,NNE,33,3.6,4.0,42,-99.99,,,0.00,LWC V2.10 B1813,2013-03-05 03:04:00,
2013-03-04 22:09:00,33.3,12.7,-100.00,NNE,25,3.6,4.0,42,-99.99,,,0.00,LWC V2.10 B1813,2013-03-05 03:09:00,
2013-03-04 22:14:00,33.1,12.5,-100.00,NNE,17,3.1,3.6,42,-99.99,,,0.00,LWC V2.10 B1813,2013-03-05 03:14:00,
2013-03-04 22:20:00,33.1,12.5,-100.00,NNE,16,3.6,3.6,42,-99.99,,,0.00,LWC V2.10 B1813,2013-03-05 03:20:00,
2013-03-04 22:25:00,33.1,12.5,-100.00,North,9,2.7,3.6,42,-99.99,,,0.00,LWC V2.10 B1813,2013-03-05 03:25:00,
2013-03-04 22:30:00,33.1,12.5,-100.00,NNE,18,2.7,3.6,42,-99.99,,,0.00,LWC V2.10 B1813,2013-03-05 03:30:00,
2013-03-04 22:35:00,33.3,12.7,-100.00,NNE,23,2.7,3.6,42,-99.99,,,0.00,LWC V2.10 B1813,2013-03-05 03:35:00,
2013-03-04 22:40:00,33.3,12.7,-100.00,NE,39,3.1,3.1,42,-99.99,,,0.00,LWC V2.10 B1813,2013-03-05 03:40:00,
2013-03-04 22:45:00,33.4,12.3,-100.00,NE,39,0.0,0.0,41,-99.99,,,0.00,LWC V2.10 B1813,2013-03-05 03:45:00,
2013-03-04 22:50:00,33.6,13.0,-100.00,NNE,19,3.1,4.0,42,-99.99,,,0.00,LWC V2.10 B1813,2013-03-05 03:50:00,
2013-03-04 22:55:00,33.6,13.0,-100.00,NNE,30,2.7,4.0,42,-99.99,,,0.00,LWC V2.10 B1813,2013-03-05 03:55:00,
2013-03-04 23:00:00,33.3,12.7,-100.00,North,8,3.6,4.0,42,-99.99,,,0.00,LWC V2.10 B1813,2013-03-05 04:00:00,
2013-03-04 23:05:00,33.3,12.7,-100.00,NNE,22,3.1,3.6,42,-99.99,,,0.00,LWC V2.10 B1813,2013-03-05 04:05:00,
2013-03-04 23:10:00,33.3,12.7,-100.00,NNE,30,2.7,3.6,42,-99.99,,,0.00,LWC V2.10 B1813,2013-03-05 04:10:00,
2013-03-04 23:15:00,33.3,12.7,-100.00,NNE,24,2.7,3.1,42,-99.99,,,0.00,LWC V2.10 B1813,2013-03-05 04:15:00,
2013-03-04 23:20:00,33.4,12.8,-100.00,NNE,24,3.1,3.6,42,-99.99,,,0.00,LWC V2.10 B1813,2013-03-05 04:20:00,
2013-03-04 23:25:00,33.4,12.8,-100.00,NNE,24,3.1,3.6,42,-99.99,,,0.00,LWC V2.10 B1813,2013-03-05 04:25:00,
2013-03-04 23:30:00,33.4,12.8,-100.00,NNE,24,2.7,3.6,42,-99.99,,,0.00,LWC V2.10 B1813,2013-03-05 04:30:00,
2013-03-04 23:35:00,33.4,12.8,-100.00,NNE,24,3.1,3.1,42,-99.99,,,0.00,LWC V2.10 B1813,2013-03-05 04:35:00,
2013-03-04 23:40:00,33.4,12.8,-100.00,NNE,30,3.6,3.6,42,-99.99,,,0.00,LWC V2.10 B1813,2013-03-05 04:40:00,
2013-03-04 23:45:00,33.4,12.8,-100.00,NNE,30,2.7,3.1,42,-99.99,,,0.00,LWC V2.10 B1813,2013-03-05 04:45:00,
2013-03-04 23:50:00,33.4,12.8,-100.00,NE,38,2.7,3.1,42,-99.99,,,0.00,LWC V2.10 B1813,2013-03-05 04:50:00,
2013-03-04 23:55:00,33.6,13.0,-100.00,NE,37,2.7,3.6,42,-99.99,,,0.00,LWC V2.10 B1813,2013-03-05 04:55:00,